Wind_Speed
23 23 23 23 22 20 18 16 14 12 12 9 7 4 2 2 2 4 5 6 6 6 7 6 6 6 6 4 4 3 3 3 3 3 3 3 4 4 5 5 6 6 6 6 7 7 7 8 8
24 25 26 26 25 23 21 19 16 14 12 10 7 4 3 2 3 4 6 6 7 6 6 6 6 5 5 4 3 3 2 3 2 2 2 2 2 3 3 3 4 5 5 5 6 6 7 7 8
25 27 28 29 28 25 23 20 18 15 12 10 7 6 3 2 3 5 6 7 7 6 6 5 5 4 4 3 3 2 2 2 2 2 2 2 2 2 2 3 3 4 4 5 5 6 6 7 7
26 28 30 30 29 27 25 22 20 17 15 12 9 6 4 2 4 6 6 7 7 6 5 4 4 3 3 3 2 3 2 2 1 2 2 2 2 2 2 2 3 4 4 5 5 6 6 7 7
26 28 30 30 30 29 28 25 22 20 17 14 10 8 5 3 4 6 6 6 5 4 4 4 3 3 2 2 2 3 3 2 2 2 2 2 2 2 2 2 3 4 5 5 6 7 7 7 8
26 27 29 28 28 30 30 27 24 22 20 17 13 10 6 4 5 5 6 5 4 3 3 3 3 3 3 2 2 3 3 3 3 3 3 3 2 2 2 2 3 4 5 6 6 7 7 7 8
25 26 26 25 28 32 32 30 27 26 24 20 16 13 8 5 4 5 6 5 4 3 2 3 3 4 4 3 3 4 4 4 3 3 3 3 3 2 2 2 3 4 5 6 7 7 8 7 8
24 24 22 23 27 32 34 33 31 29 27 23 19 15 11 6 4 5 6 5 3 2 2 3 4 4 4 4 4 4 5 5 4 4 4 3 3 3 3 3 3 4 5 7 8 9 9 8 8
24 22 19 20 26 32 35 35 34 33 30 25 21 18 13 8 6 6 6 5 3 2 2 3 4 5 5 5 5 5 5 5 5 5 4 4 4 4 4 4 5 6 7 8 9 10 11 10 10
24 20 17 20 26 32 37 38 37 35 32 27 24 20 15 10 8 8 7 5 3 3 3 3 3 4 4 5 6 6 6 6 6 6 5 5 5 5 5 6 6 7 8 9 10 11 12 12 12
25 21 20 22 26 32 38 40 39 38 34 31 27 22 17 13 10 9 9 6 4 3 3 4 4 4 5 5 6 6 6 7 6 6 6 7 7 7 7 7 8 9 9 10 11 12 12 13 13
28 25 23 24 27 31 36 39 40 38 36 33 30 26 21 16 13 11 10 7 5 5 4 5 5 6 6 7 7 8 8 7 7 7 7 7 8 9 9 9 10 10 10 11 12 13 13 13 14
30 28 26 25 26 29 33 36 39 38 36 35 33 28 22 18 15 13 11 9 7 6 6 6 6 7 8 8 8 9 9 9 8 9 9 9 9 10 11 11 11 11 11 12 13 13 14 14 14
31 30 28 26 24 26 29 32 34 35 35 35 32 29 24 20 17 15 14 11 9 8 8 7 8 9 9 10 10 10 11 11 11 10 11 11 12 13 13 13 13 13 13 14 15 15 15 15 15
32 30 28 27 25 25 27 29 29 31 34 34 32 30 26 23 20 17 15 13 12 10 10 9 10 10 12 12 13 13 14 14 14 14 14 14 14 15 15 15 15 16 16 16 16 17 17 17 17
32 31 29 28 27 27 27 28 28 31 33 33 31 30 26 23 21 19 16 15 15 13 12 10 12 13 13 14 15 16 17 17 17 16 16 17 17 17 17 18 18 19 19 19 19 19 19 19 19
32 31 30 29 28 28 27 27 29 32 33 33 32 30 27 24 23 21 19 17 16 15 14 13 13 14 16 17 17 18 19 19 20 19 19 20 20 21 20 21 21 22 22 22 22 22 22 22 21
31 31 30 29 29 29 28 28 31 33 33 33 32 31 29 26 24 22 21 20 19 18 17 17 17 17 19 19 20 21 22 23 23 24 24 24 23 23 23 24 24 25 26 26 25 25 25 25 24
29 30 29 29 30 29 28 28 31 32 32 32 31 31 30 28 26 25 23 22 21 21 21 21 21 21 22 23 23 24 25 26 27 28 27 27 27 26 26 27 28 29 28 28 28 28 28 27 26
27 28 28 28 29 30 29 29 31 32 32 31 31 30 30 29 28 26 25 24 24 22 21 22 23 24 26 27 28 28 28 28 29 31 32 30 29 29 29 30 31 31 30 30 31 33 31 30 29
27 27 27 28 30 30 29 29 31 32 32 31 31 30 30 31 30 28 27 26 26 25 25 26 26 26 27 29 30 31 32 31 32 33 34 33 32 32 32 33 33 33 33 33 35 35 33 32 31
26 27 27 28 30 30 30 30 31 31 31 31 30 30 30 31 31 31 29 29 28 28 28 30 30 29 29 30 31 33 34 34 33 32 32 32 32 33 34 35 34 34 34 34 35 37 35 34 33
25 27 28 29 31 30 30 31 31 31 30 30 29 29 29 31 32 31 31 30 30 31 31 32 31 31 32 32 34 37 36 34 33 34 33 34 34 34 34 34 34 35 35 36 36 36 37 36 35
25 27 29 30 31 31 30 31 31 31 30 29 29 29 30 31 32 32 31 31 32 32 33 33 33 33 34 34 35 37 37 37 35 34 34 34 34 35 37 37 37 36 36 36 36 37 38 38 40
25 27 29 30 32 31 30 31 31 31 30 29 30 31 31 32 33 33 33 33 33 34 35 36 36 35 35 36 37 38 38 37 37 37 37 38 37 37 37 37 36 35 36 37 38 39 40 41 42
25 27 28 30 30 31 31 32 31 31 31 30 30 31 32 33 34 34 35 35 36 36 37 38 38 37 37 37 38 38 38 38 38 38 38 37 37 36 37 37 38 38 38 39 40 41 43 44 45
23 25 27 28 29 30 32 33 33 32 32 32 32 32 33 34 35 35 36 37 38 38 39 38 38 38 38 38 39 40 41 40 39 39 40 40 38 38 38 38 40 41 42 43 43 44 46 47 47
22 23 25 28 29 30 33 33 34 33 32 33 33 33 34 35 36 37 37 38 39 40 41 41 41 41 42 42 42 42 41 39 39 40 40 40 39 38 38 40 42 43 45 46 47 49 49 50 52
21 23 25 26 28 29 32 34 34 34 35 35 36 36 35 35 36 38 38 39 39 40 41 42 43 44 43 42 41 42 42 40 41 40 40 40 40 41 42 42 44 46 48 49 51 52 54 55 56
19 21 23 25 26 28 30 32 32 33 33 34 35 36 37 37 37 36 37 38 38 39 39 40 41 41 41 41 41 41 40 40 41 41 41 41 42 43 43 46 48 49 51 52 54 55 57 59 60
Wind_Direction
225 218 214 214 214 218 223 228 231 229 223 211 201 197 205 266 302 307 311 312 311 304 297 287 272 266 262 261 263 261 258 256 247 245 247 254 268 283 295 305 310 314 318 321 321 319 319 319 317
229 222 218 216 216 218 223 228 229 228 228 217 204 206 226 288 318 328 322 315 312 307 300 285 269 260 253 251 248 245 247 247 245 240 236 236 248 263 280 299 309 314 318 319 319 318 319 319 317
233 226 221 218 217 218 224 229 232 233 228 219 211 211 222 292 326 329 323 316 310 305 298 278 263 252 240 228 220 208 215 223 224 229 232 232 239 254 279 299 306 311 314 316 318 319 320 319 316
238 231 227 222 219 219 224 229 234 233 229 229 223 215 220 279 323 324 319 312 308 301 288 265 245 230 215 203 192 184 189 194 204 220 223 232 248 265 289 302 307 311 314 316 318 318 318 316 312
242 237 232 226 219 219 223 227 230 233 237 236 230 225 231 278 311 320 316 307 303 294 274 247 221 198 185 173 166 177 180 183 194 204 213 228 248 266 283 298 304 309 314 317 317 316 316 317 313
245 243 238 231 220 218 224 227 229 233 236 235 232 234 240 269 308 323 321 307 293 284 260 224 192 176 173 172 173 180 181 183 190 197 207 221 237 250 266 280 295 305 312 313 314 316 318 319 314
247 247 244 234 220 218 223 227 230 233 236 236 237 239 243 256 292 321 322 310 290 271 234 195 175 167 170 170 171 176 181 185 191 196 203 210 218 233 251 269 291 301 304 307 310 311 313 315 312
246 248 246 235 222 218 222 226 229 233 235 237 237 238 238 247 279 310 316 305 287 258 207 180 166 160 161 164 165 173 181 187 189 192 197 203 215 233 254 268 283 291 297 301 304 305 305 306 304
243 247 246 234 222 217 221 226 229 233 235 236 237 238 241 253 273 299 304 294 274 242 189 168 162 158 160 167 170 177 184 190 193 199 205 212 223 236 251 264 275 285 291 295 299 302 301 299 295
238 242 237 228 220 216 220 225 228 232 234 235 236 240 244 252 270 286 292 280 260 234 195 172 164 170 174 176 180 188 193 199 203 209 213 221 228 238 251 262 273 283 289 295 298 302 302 299 294
233 233 230 225 220 217 220 224 227 232 234 235 235 239 244 252 265 276 277 269 256 238 204 191 187 192 195 198 201 202 204 208 214 221 226 231 237 246 255 262 274 281 286 291 297 299 302 300 298
229 228 227 225 223 220 221 225 228 231 234 236 237 241 246 251 258 264 262 258 249 232 217 209 208 212 215 217 218 216 216 217 223 232 236 239 245 252 256 264 273 281 287 291 295 299 301 301 299
226 226 226 227 228 225 224 227 230 233 235 239 242 245 246 249 253 253 250 247 242 237 232 224 221 224 225 224 225 224 224 224 229 237 241 245 250 254 259 266 271 277 284 288 292 296 300 300 301
225 226 227 228 230 228 226 228 231 233 236 239 242 244 245 245 247 250 247 240 238 237 237 233 229 231 233 234 235 235 237 236 237 240 244 248 252 255 258 264 269 273 279 285 289 292 296 298 300
226 226 226 227 228 228 227 227 230 230 233 237 240 242 242 242 244 244 241 236 235 233 235 238 239 240 240 241 244 246 246 245 243 243 247 250 253 257 261 265 268 272 277 283 288 291 292 294 295
227 226 225 225 226 227 227 225 227 228 232 235 238 240 240 239 238 237 235 236 237 236 238 240 240 242 245 249 251 251 250 249 248 248 250 253 256 259 262 266 270 273 276 280 285 288 288 290 290
227 226 225 224 226 227 225 221 225 228 232 234 237 237 236 235 235 235 236 238 239 239 241 243 244 246 247 250 251 253 254 256 255 254 253 256 259 262 265 268 272 276 277 279 281 283 285 285 286
226 225 225 224 226 227 225 221 224 230 234 236 237 237 236 233 234 234 236 236 238 240 241 242 247 250 249 250 256 259 259 260 258 257 256 258 261 263 267 269 271 274 276 279 280 280 282 283 282
224 223 224 224 226 227 227 223 225 231 234 236 238 239 239 235 232 232 233 234 237 242 243 245 247 252 255 255 257 260 260 260 260 264 263 265 263 264 268 270 271 273 276 278 277 280 281 282 282
224 224 224 225 226 227 227 225 226 231 234 237 239 239 238 235 233 231 231 235 239 244 248 250 251 254 256 258 257 258 261 262 265 268 266 267 266 267 270 271 273 273 276 278 279 279 280 282 283
223 223 222 222 224 227 227 226 228 231 234 236 238 238 236 234 232 231 233 236 239 243 246 249 253 256 259 261 261 263 263 267 266 269 267 269 270 270 273 273 275 277 279 282 282 282 283 282 283
219 217 217 218 220 223 224 224 227 230 232 235 236 236 235 234 233 234 236 238 241 245 248 251 254 258 262 264 264 264 266 269 273 276 277 279 280 278 277 278 278 280 280 282 284 284 283 286 286
216 215 214 216 219 222 224 223 224 226 228 231 232 233 234 234 235 237 239 241 244 247 249 253 255 259 263 265 268 268 269 273 276 280 281 282 283 284 288 287 286 284 281 280 285 285 286 287 287
216 216 216 217 220 221 222 224 223 224 226 229 230 232 234 235 237 240 242 244 247 250 253 257 261 262 265 270 274 273 275 276 280 286 288 288 288 288 289 287 287 287 284 285 288 289 287 287 287
217 216 216 219 220 222 222 226 226 225 226 229 231 234 236 237 239 243 246 248 251 253 258 262 264 266 270 273 275 275 276 281 285 288 290 289 289 290 289 289 289 289 289 289 289 288 288 288 288
219 218 220 222 224 224 225 229 229 229 230 232 235 238 240 242 244 246 248 250 252 256 260 264 266 269 271 272 275 278 280 285 288 291 292 293 292 290 292 290 291 292 290 290 290 289 289 289 289
220 221 223 226 226 228 229 232 235 235 236 237 240 242 244 246 248 250 252 254 256 258 261 264 267 270 271 274 276 280 283 285 288 290 292 292 292 292 292 291 291 290 290 290 290 290 290 289 289
224 224 224 227 229 230 232 235 237 238 241 243 245 247 249 250 252 254 257 258 259 260 262 265 266 268 270 273 276 280 282 285 288 290 292 293 293 291 290 290 290 290 290 290 290 289 290 290 289
227 228 229 231 233 235 237 239 241 244 244 247 250 252 254 255 255 256 258 259 260 262 264 266 268 269 271 274 276 279 282 284 287 289 290 289 290 290 289 290 290 291 291 291 291 291 290 290 290
234 233 233 235 236 238 241 243 244 248 250 251 254 255 257 259 261 263 263 262 263 265 266 268 269 271 274 276 279 280 281 284 286 287 289 289 290 290 289 290 291 291 291 291 291 291 290 290 291
Height
5869 5872 5874 5877 5879 5880 5881 5881 5882 5883 5884 5885 5885 5886 5886 5887 5889 5891 5889 5888 5887 5887 5888 5888 5888 5889 5889 5889 5890 5891 5892 5893 5894 5895 5896 5897 5897 5898 5898 5898 5899 5899 5899 5899 5899 5899 5899 5899 5898
5866 5869 5872 5874 5875 5877 5879 5879 5880 5881 5882 5883 5884 5884 5885 5885 5886 5886 5886 5886 5886 5886 5886 5886 5887 5887 5888 5888 5889 5889 5890 5891 5892 5894 5895 5895 5896 5897 5897 5897 5898 5898 5898 5898 5898 5898 5897 5897 5897
5862 5865 5868 5870 5872 5875 5876 5877 5878 5880 5881 5882 5882 5883 5884 5884 5885 5885 5885 5885 5885 5885 5885 5885 5886 5886 5886 5887 5888 5888 5889 5890 5891 5892 5893 5894 5895 5895 5896 5896 5896 5896 5896 5896 5896 5896 5896 5896 5896
5859 5861 5864 5867 5869 5872 5874 5875 5876 5878 5879 5881 5881 5882 5882 5884 5884 5884 5884 5884 5884 5884 5884 5884 5884 5885 5885 5886 5886 5887 5888 5889 5890 5891 5892 5893 5893 5894 5894 5895 5895 5894 5894 5894 5894 5895 5894 5894 5894
5855 5857 5859 5862 5866 5869 5871 5872 5874 5875 5877 5879 5880 5881 5881 5882 5883 5883 5883 5883 5883 5883 5883 5883 5884 5884 5885 5885 5886 5887 5888 5889 5889 5890 5891 5892 5892 5893 5893 5893 5893 5893 5893 5893 5893 5893 5893 5892 5892
5851 5853 5855 5859 5863 5866 5868 5870 5871 5873 5874 5876 5878 5879 5880 5881 5881 5882 5882 5882 5882 5882 5883 5883 5883 5883 5884 5885 5886 5886 5887 5888 5889 5890 5890 5891 5891 5892 5892 5892 5892 5892 5891 5891 5891 5891 5891 5891 5890
5848 5849 5851 5856 5860 5862 5864 5866 5868 5869 5871 5874 5876 5877 5878 5879 5880 5881 5881 5882 5882 5882 5882 5882 5882 5883 5884 5884 5885 5886 5887 5888 5888 5889 5890 5890 5890 5891 5891 5891 5891 5890 5890 5890 5889 5889 5889 5889 5888
5843 5846 5848 5852 5855 5859 5861 5862 5864 5866 5868 5871 5873 5875 5876 5877 5879 5879 5880 5881 5881 5881 5881 5882 5882 5882 5883 5884 5885 5886 5887 5887 5888 5889 5889 5889 5890 5890 5890 5890 5890 5889 5889 5888 5888 5887 5887 5887 5886
5840 5843 5845 5848 5851 5855 5856 5858 5860 5862 5865 5868 5871 5873 5874 5875 5877 5878 5879 5880 5880 5880 5881 5881 5881 5882 5883 5884 5885 5886 5887 5887 5888 5888 5888 5889 5889 5889 5889 5889 5889 5888 5888 5887 5886 5885 5885 5884 5884
5836 5839 5842 5844 5846 5849 5850 5853 5855 5857 5861 5865 5868 5870 5872 5873 5875 5877 5878 5879 5879 5880 5880 5881 5881 5882 5883 5884 5885 5885 5886 5887 5887 5887 5888 5888 5888 5888 5888 5888 5887 5887 5886 5885 5884 5883 5882 5882 5881
5831 5835 5837 5838 5840 5843 5845 5847 5850 5853 5857 5862 5864 5867 5869 5871 5873 5875 5876 5877 5878 5879 5879 5880 5881 5882 5883 5884 5884 5885 5885 5886 5886 5886 5887 5887 5887 5887 5886 5886 5885 5885 5884 5883 5882 5881 5880 5879 5878
5826 5829 5831 5833 5835 5838 5841 5843 5846 5849 5854 5857 5861 5864 5866 5869 5871 5873 5874 5876 5877 5878 5878 5879 5880 5881 5882 5883 5884 5884 5884 5885 5885 5885 5886 5885 5885 5885 5884 5884 5883 5883 5882 5881 5880 5879 5878 5876 5875
5821 5824 5826 5829 5831 5834 5837 5839 5843 5847 5851 5853 5857 5860 5864 5866 5868 5870 5872 5874 5875 5876 5877 5878 5879 5880 5881 5882 5883 5883 5883 5883 5883 5884 5884 5884 5883 5883 5882 5882 5881 5880 5879 5878 5877 5876 5875 5873 5872
5815 5819 5822 5825 5828 5831 5834 5836 5839 5844 5847 5850 5853 5857 5860 5863 5865 5868 5870 5872 5873 5874 5875 5876 5877 5879 5880 5880 5881 5881 5881 5881 5881 5881 5881 5881 5881 5880 5880 5879 5878 5877 5876 5875 5874 5873 5872 5870 5869
5810 5815 5819 5822 5825 5828 5831 5834 5837 5841 5843 5846 5849 5853 5856 5859 5862 5865 5867 5869 5870 5872 5873 5874 5875 5877 5877 5878 5879 5879 5879 5879 5879 5878 5878 5878 5877 5877 5877 5876 5875 5874 5873 5872 5870 5869 5868 5867 5865
5805 5811 5815 5818 5821 5823 5829 5832 5834 5835 5838 5841 5845 5849 5852 5856 5859 5861 5864 5866 5867 5869 5870 5871 5872 5874 5875 5876 5876 5876 5876 5876 5876 5875 5874 5874 5873 5873 5873 5872 5871 5870 5869 5867 5866 5865 5864 5862 5861
5801 5805 5809 5813 5816 5819 5824 5828 5829 5831 5833 5837 5840 5844 5848 5852 5855 5858 5860 5862 5864 5866 5867 5868 5869 5870 5871 5871 5872 5872 5872 5872 5871 5871 5870 5869 5868 5868 5867 5867 5866 5865 5864 5863 5861 5860 5859 5857 5856
5795 5800 5804 5808 5811 5815 5819 5823 5825 5826 5829 5833 5836 5839 5843 5847 5851 5854 5856 5858 5861 5862 5863 5864 5865 5866 5866 5867 5867 5867 5867 5867 5866 5865 5864 5863 5862 5862 5862 5861 5860 5859 5858 5857 5855 5854 5853 5851 5850
5790 5795 5799 5803 5806 5810 5814 5818 5820 5822 5825 5829 5832 5835 5839 5842 5846 5849 5851 5854 5856 5857 5858 5859 5860 5861 5861 5861 5862 5862 5861 5861 5860 5859 5857 5856 5855 5855 5854 5854 5853 5852 5851 5850 5849 5847 5846 5844 5843
5785 5790 5795 5798 5801 5806 5809 5813 5816 5818 5821 5824 5827 5830 5834 5837 5840 5844 5847 5849 5851 5852 5853 5854 5855 5856 5857 5856 5856 5856 5854 5853 5854 5853 5851 5850 5848 5848 5847 5846 5846 5845 5844 5843 5841 5839 5838 5836 5836
5781 5786 5790 5793 5796 5801 5805 5809 5812 5814 5817 5820 5823 5826 5829 5832 5835 5839 5841 5843 5845 5847 5848 5849 5849 5850 5850 5849 5849 5848 5847 5846 5846 5845 5844 5842 5841 5840 5840 5839 5838 5838 5837 5835 5834 5832 5830 5829 5828
5777 5781 5785 5788 5792 5796 5801 5804 5807 5810 5813 5816 5818 5821 5824 5827 5830 5833 5836 5838 5840 5841 5842 5843 5843 5843 5843 5842 5841 5841 5839 5838 5838 5838 5837 5836 5834 5833 5832 5831 5830 5830 5829 5828 5826 5823 5821 5820 5819
5773 5776 5781 5784 5788 5792 5796 5800 5803 5806 5809 5812 5814 5817 5819 5822 5825 5828 5830 5833 5834 5835 5836 5837 5837 5836 5836 5835 5834 5833 5832 5831 5831 5830 5829 5828 5827 5826 5825 5822 5821 5820 5819 5819 5818 5816 5813 5812 5811
5769 5773 5777 5780 5784 5789 5792 5796 5799 5802 5805 5808 5810 5812 5815 5817 5820 5822 5824 5826 5828 5829 5829 5830 5830 5829 5828 5828 5827 5825 5825 5823 5823 5822 5821 5820 5819 5818 5817 5815 5814 5813 5812 5811 5809 5807 5805 5804 5802
5766 5770 5774 5777 5781 5785 5788 5791 5795 5798 5801 5803 5805 5807 5809 5811 5814 5816 5818 5820 5821 5822 5822 5822 5822 5821 5821 5821 5820 5819 5817 5816 5815 5815 5813 5813 5811 5809 5808 5806 5805 5804 5803 5801 5800 5798 5796 5793 5791
5762 5767 5771 5775 5777 5781 5784 5786 5790 5793 5796 5798 5800 5802 5804 5805 5807 5809 5811 5812 5813 5814 5815 5815 5814 5814 5813 5813 5812 5811 5810 5808 5807 5806 5805 5803 5802 5801 5800 5798 5796 5795 5793 5791 5789 5787 5785 5782 5780
5759 5763 5767 5770 5773 5776 5779 5782 5785 5788 5790 5792 5794 5796 5798 5799 5801 5802 5803 5805 5806 5806 5806 5807 5806 5806 5805 5804 5803 5803 5802 5801 5799 5798 5797 5795 5794 5793 5791 5790 5788 5786 5784 5781 5779 5777 5774 5771 5768
5757 5759 5763 5766 5769 5771 5774 5777 5780 5782 5784 5786 5788 5789 5791 5792 5794 5795 5796 5797 5798 5798 5798 5798 5798 5797 5796 5795 5794 5793 5793 5792 5791 5789 5788 5787 5785 5784 5783 5781 5779 5776 5774 5771 5768 5765 5761 5758 5754
5754 5756 5759 5762 5764 5767 5769 5773 5774 5776 5778 5780 5781 5783 5784 5785 5786 5787 5788 5789 5789 5790 5790 5790 5789 5788 5787 5787 5785 5784 5784 5784 5782 5781 5779 5778 5776 5775 5773 5770 5768 5765 5762 5759 5756 5752 5748 5744 5740
5750 5753 5755 5758 5760 5762 5764 5769 5768 5770 5771 5773 5774 5775 5776 5777 5778 5779 5780 5781 5781 5781 5781 5781 5780 5779 5779 5778 5777 5776 5775 5774 5772 5771 5770 5768 5766 5764 5762 5759 5757 5753 5750 5746 5742 5738 5734 5729 5724